Regional Weather Roundup
Issued by NWS

Home | Current Version | Previous Version | Graphics & Text | Print | Product List | Glossary Off
Versions: 1 2 3 4 5 6 7 8 9 10 11 12 13 14 15 16 17 18 19 20 21 22 23 24 25 26 27 28 29

000
ASUS45 KBOI 292210
RWRID

IDAHO REGIONAL WEATHER ROUNDUP
NATIONAL WEATHER SERVICE BOISE ID
400 PM MDT FRI APR 29 2016

NOTE: "FAIR" INDICATES FEW OR NO CLOUDS BELOW 12000 FEET
WITH NO SIGNIFICANT WEATHER AND/OR OBSTRUCTIONS TO VISIBILITY

IDZ012-014-292300-
SOUTHWEST IDAHO


CITY           SKY/WX    TMP DP  RH WIND       PRES   REMARKS
BOISE          MOSUNNY   63  35  35 NW17G25   29.85F
CALDWELL       CLOUDY    61  40  45 NW15      29.87S
MOUNTAIN HOME  PTSUNNY   65  35  33 NW23G32   29.82F
$$

IDZ016-017-292300-
SOUTHCENTRAL IDAHO


CITY           SKY/WX    TMP DP  RH WIND       PRES   REMARKS
BURLEY         LGT RAIN  49  39  68 E8        29.81F
JEROME         CLOUDY    60  34  37 W23G30    29.81F
TWIN FALLS     PTSUNNY   60  33  36 W17G26    29.82F
$$

IDZ019>023-292300-
SOUTHEAST IDAHO


CITY           SKY/WX    TMP DP  RH WIND       PRES   REMARKS
IDAHO FALLS    CLOUDY    55  34  45 S12G18    29.84F
POCATELLO      LGT RAIN  45  41  86 NW8       29.86S
REXBURG        LGT RAIN  47  36  65 VRB3      29.83F
$$

IDZ006-010-011-018-031-032-292300-
CENTRAL IDAHO MOUNTAINS


CITY           SKY/WX    TMP DP  RH WIND       PRES   REMARKS
MCCALL         LGT RAIN  44  38  79 NW12      29.88F
HAILEY         PTSUNNY   46  41  81 S7        29.85F
STANLEY          N/A     48  31  51 N7        29.85F
SALMON         PTSUNNY   50  34  53 NW16      29.83S
CHALLIS        LGT RAIN  48  39  71 N18       29.82R
$$

IDZ002-004-006-007-026-292300-
NORTHERN IDAHO


CITY           SKY/WX    TMP DP  RH WIND       PRES   REMARKS
LEWISTON       LGT RAIN  51  46  83 VRB6      29.96S
LOWELL           N/A     50  47  89 N3        29.96S
COEUR D`ALENE  CLOUDY    54  37  54 SW5       29.92F
MULLAN PASS    CLOUDY    37  28  70 VRB3      29.91S
$$




USA.gov is the U.S. government's official web portal to all federal, state and local government web resources and services.